Mankato, MN

10:43 PM CST on December 06, 2019 (GMT -0600)
Mankato Regional

Weather History for KMKT - November, 2019

Change the Weather History Date:

Friday, November 22, 2019

  Actual Average Record
Temperature  
Mean Temperature 24 °F -  
Max Temperature 30 °F 36 °F 57 °F (1998)
Min Temperature 17 °F 22 °F 5 °F (1996)
Degree Days  
Heating Degree Days 42    
Moisture  
Dew Point 19 °F    
Average Humidity 86    
Maximum Humidity 96    
Minimum Humidity 74    
Precipitation  
Precipitation 0.00 in - - ()
Sea Level Pressure  
Sea Level Pressure 30.21 in    
Wind  
Wind Speed 7 mph ()    
Max Wind Speed 13 mph    
Max Gust Speed -    
Visibility 9.8 miles    
Events Snow    
Averages and records for this station are not official NWS values.
T = Trace of Precipitation, MM = Missing Value Source: Averaged Metar Reports

Daily Weather History Graph

Daily Weather History Graph

Search for Another Location

Airport or City:

Astronomy

Nov. 22, 2019 Rise Set
Actual Time 7:20 AM CST 4:43 PM CST
Civil Twilight 6:48 AM CST 5:14 PM CST
Nautical Twilight 6:12 AM CST 5:50 PM CST
Astronomical Twilight 5:38 AM CST 6:25 PM CST
Moon 2:13 AM CST (11/22) 2:56 PM CST (11/22)
Length of Visible Light 10h 26m
Length of Day
9h 23m
Waning Crescent, 19% of the Moon is Illuminated
Nov 22
Waning Crescent
Nov 26
New
Dec 4
First Quarter
Dec 11
Full
Dec 18
Last Quarter

Hourly Weather History & Observations

Time (CST) Temp. Windchill Dew Point Humidity Pressure Visibility Wind Dir Wind Speed Gust Speed Precip Events Conditions
12:56 AM 19.0 °F 6.1 °F 14.0 °F 81% 30.30 in 10.0 mi NW 12.7 mph - 0.00 in Snow Light Snow
1:56 AM 19.9 °F 9.3 °F 15.1 °F 81% 30.30 in 9.0 mi NNW 9.2 mph - 0.00 in Snow Light Snow
2:56 AM 19.0 °F 7.5 °F 15.1 °F 85% 30.30 in 10.0 mi NW 10.4 mph - 0.00 in   Overcast
3:56 AM 19.0 °F 6.8 °F 15.1 °F 85% 30.30 in 9.0 mi WNW 11.5 mph - 0.00 in   Overcast
4:56 AM 18.0 °F 6.9 °F 15.1 °F 88% 30.31 in 9.0 mi WNW 9.2 mph - 0.00 in Snow Light Snow
5:56 AM 18.0 °F 7.7 °F 14.0 °F 84% 30.31 in 10.0 mi West 8.1 mph - 0.00 in Snow Light Snow
6:56 AM 18.0 °F 9.8 °F 15.1 °F 88% 30.30 in 10.0 mi West 5.8 mph - 0.00 in   Overcast
7:28 AM 17.6 °F 10.7 °F 15.8 °F 93% 30.24 in 10.0 mi West 4.6 mph - N/A   Overcast
7:56 AM 17.1 °F 5.8 °F 15.1 °F 92% 30.31 in 9.0 mi West 9.2 mph - 0.00 in Snow Light Snow
8:56 AM 17.1 °F 4.3 °F 15.1 °F 92% 30.32 in 10.0 mi WSW 11.5 mph - 0.00 in Snow Light Snow
9:56 AM 18.0 °F 9.8 °F 16.0 °F 92% 30.32 in 10.0 mi SW 5.8 mph - 0.00 in   Overcast
11:56 AM 26.1 °F - 19.0 °F 75% 30.26 in 10.0 mi Calm Calm - N/A   Mostly Cloudy
12:04 PM 24.8 °F 20.5 °F 17.6 °F 74% 30.20 in 10.0 mi SW 3.5 mph - N/A   Partly Cloudy
1:56 PM 27.0 °F 18.7 °F 21.0 °F 78% 30.21 in 10.0 mi SSW 8.1 mph - N/A   Clear
2:56 PM 28.9 °F 21.1 °F 21.9 °F 75% 30.19 in 10.0 mi SW 8.1 mph - N/A   Clear
3:56 PM 30.0 °F 24.1 °F 23.0 °F 75% 30.17 in 10.0 mi South 5.8 mph - N/A   Clear
4:56 PM 27.0 °F 21.6 °F 23.0 °F 85% 30.15 in 10.0 mi South 4.6 mph - N/A   Clear
5:56 PM 26.1 °F 19.4 °F 24.1 °F 92% 30.12 in 10.0 mi SSE 5.8 mph - N/A   Clear
6:56 PM 26.1 °F 18.4 °F 24.1 °F 92% 30.11 in 10.0 mi South 6.9 mph - N/A   Clear
7:56 PM 25.0 °F 15.5 °F 24.1 °F 96% 30.09 in 10.0 mi South 9.2 mph - N/A   Clear
8:56 PM 26.1 °F 17.6 °F 24.1 °F 92% 30.06 in 10.0 mi South 8.1 mph - N/A   Clear
9:56 PM 26.1 °F 17.6 °F 23.0 °F 88% 30.04 in 10.0 mi SSW 8.1 mph - N/A   Clear
10:56 PM 26.1 °F 18.4 °F 23.0 °F 88% 30.02 in 10.0 mi SSW 6.9 mph - N/A   Clear
11:56 PM 25.0 °F 16.3 °F 21.9 °F 88% 29.99 in 10.0 mi South 8.1 mph - N/A   Clear